This is the latest recevied weather packets stored in our database for station/object KE0TNI-13. If no packets are shown the sender has not sent any weather packets the latest 10 day(s).
| Time | Temp. | Humidity | Pressure | Rain* | Wind** | Luminosity | Snow |
|---|---|---|---|---|---|---|---|
| 1778002887 | -1.11° C | 96% | 1014.5 hPa | 0 mm | - | 70 W/m² | - |
| 1778002583 | -1.11° C | 96% | 1014.3 hPa | 0 mm | - | 93 W/m² | - |
| 1778002280 | -1.67° C | 96% | 1014.7 hPa | 0 mm | - | 100 W/m² | - |
| 1778001978 | -1.11° C | 96% | 1014.1 hPa | 0 mm | - | 97 W/m² | - |
| 1778001674 | -1.11° C | 97% | 1014.7 hPa | 0 mm | - | 95 W/m² | - |
| 1778001369 | -1.67° C | 96% | 1014.5 hPa | 0 mm | - | 85 W/m² | - |
| 1778001066 | -1.67° C | 96% | 1014.5 hPa | 0 mm | - | 73 W/m² | - |
| 1778000763 | -1.67° C | 96% | 1014.5 hPa | 0 mm | - | 73 W/m² | - |
| 1778000460 | -1.67° C | 97% | 1014.5 hPa | 0 mm | - | 78 W/m² | - |
| 1778000154 | -1.67° C | 97% | 1014.8 hPa | 0 mm | - | 107 W/m² | - |
| 1777999851 | -1.67° C | 97% | 1014.7 hPa | 0.51 mm | - | 104 W/m² | - |
| 1777999547 | -1.67° C | 96% | 1014.9 hPa | 0.51 mm | - | 92 W/m² | - |
| 1777999244 | -1.11° C | 97% | 1014.7 hPa | 0 mm | - | 92 W/m² | - |
| 1777998943 | -1.11° C | 97% | 1014.7 hPa | 0 mm | - | 92 W/m² | - |
| 1777998640 | -1.11° C | 97% | 1014.9 hPa | 0 mm | - | 111 W/m² | - |
| 1777998338 | -1.67° C | 97% | 1015 hPa | 0.51 mm | - | 119 W/m² | - |
| 1777998036 | -1.11° C | 97% | 1015.2 hPa | 0 mm | - | 102 W/m² | - |
| 1777997732 | -1.11° C | 97% | 1015 hPa | 0.51 mm | - | 86 W/m² | - |
| 1777997429 | -1.11° C | 97% | 1014.9 hPa | 0.51 mm | - | 102 W/m² | - |
| 1777997127 | -1.11° C | 98% | 1014.8 hPa | 0 mm | - | 145 W/m² | - |
| 1777996824 | -1.11° C | 98% | 1015 hPa | 0 mm | - | 142 W/m² | - |
| 1777996520 | -1.11° C | 98% | 1015.3 hPa | 0 mm | - | 160 W/m² | - |
| 1777996217 | -1.11° C | 98% | 1014.9 hPa | 0 mm | - | 135 W/m² | - |
| 1777995913 | -1.11° C | 98% | 1014.7 hPa | 0 mm | - | 128 W/m² | - |
| 1777995609 | -1.11° C | 98% | 1014.7 hPa | 0 mm | - | 134 W/m² | - |
* Rain latest hour (hover to see other rain measurements)
** Current wind speed in m/s (hover to see current wind gust speed)